Temperature
21 20 20 20 21 21 23 23 24 24 24 24 24 23 22 21 20 18 18 18 18 18 18 18 18 18 18 18 18 18 17 17 17 17 17 17 17 17 17 17 17 17 17 17 17 17 17 17 17
20 20 20 21 21 22 23 23 23 24 24 24 24 23 22 20 19 18 18 18 18 17 17 18 18 18 17 17 17 17 17 17 17 17 17 17 17 16 17 17 17 17 17 17 17 17 17 17 17
21 20 21 22 23 23 22 23 23 24 24 24 23 22 21 19 18 18 18 18 17 17 18 18 18 18 17 17 17 17 17 17 17 17 17 17 16 16 16 16 17 17 17 17 17 17 17 17 17
21 21 22 22 23 23 23 23 24 24 24 24 23 21 19 18 18 18 18 18 17 17 18 18 18 17 17 17 17 17 17 17 17 17 16 16 16 16 16 16 16 17 17 17 17 17 17 17 17
21 22 23 23 23 24 24 24 24 24 24 23 22 20 18 18 18 18 18 18 17 17 17 18 18 17 17 17 17 17 17 17 17 17 16 16 16 16 16 16 16 16 16 16 17 17 17 17 17
22 23 22 23 23 24 24 24 24 24 23 23 22 20 18 18 18 18 18 18 18 17 18 17 17 17 17 17 17 17 17 17 17 16 16 16 17 16 16 16 16 16 16 16 17 17 17 17 17
22 22 23 23 23 23 24 24 23 24 23 23 22 20 18 18 18 18 18 18 18 18 18 17 17 17 17 17 17 17 17 17 17 17 16 16 16 16 16 16 16 16 16 17 17 17 17 17 17
22 22 23 23 23 23 24 24 23 23 23 22 22 20 18 18 18 18 18 18 18 18 18 18 18 17 17 17 17 17 17 17 17 17 16 16 16 16 16 16 16 16 16 17 17 17 17 17 17
23 22 22 23 23 23 24 23 23 22 22 21 21 20 18 18 18 18 18 18 18 18 18 18 18 18 17 17 17 17 17 17 17 17 16 16 16 16 16 16 16 16 16 16 17 17 17 17 17
23 21 22 24 24 23 23 23 23 22 22 20 19 19 18 18 18 18 18 18 18 18 18 18 18 18 18 17 17 17 17 17 17 17 17 17 16 16 16 16 16 16 16 16 16 17 17 17 17
24 22 23 24 24 23 23 23 23 22 21 20 19 19 18 18 19 19 19 19 18 18 18 18 18 18 18 17 17 17 17 17 17 17 17 17 17 17 16 16 16 16 16 16 16 17 17 17 17
24 23 23 23 23 23 23 23 22 21 20 20 19 19 19 19 19 19 19 19 18 18 18 18 18 18 18 18 17 17 17 17 17 17 17 17 17 17 16 16 16 16 16 16 17 17 17 17 17
24 23 23 23 23 23 22 22 21 20 20 20 19 19 19 19 19 19 19 19 19 18 18 18 18 18 18 18 18 17 17 17 17 17 17 17 17 17 17 16 16 16 16 16 17 17 17 17 17
23 23 23 23 22 22 22 22 21 20 20 19 19 19 19 19 19 19 19 19 19 18 18 18 18 18 18 18 18 17 17 17 17 17 17 17 17 17 16 16 16 16 16 16 17 17 17 16 16
23 23 23 23 23 23 22 21 21 20 20 20 19 19 19 19 19 19 19 19 19 18 18 18 18 18 18 17 17 17 17 17 17 17 17 17 17 17 16 16 16 16 16 16 16 16 16 16 16
24 23 21 23 23 23 22 20 21 20 20 20 20 19 19 19 19 19 19 19 19 18 18 18 18 18 17 17 17 17 17 17 16 16 17 17 17 16 16 16 16 16 16 16 16 16 16 16 16
23 22 22 22 23 23 22 20 21 20 20 20 20 20 19 19 19 19 19 19 19 18 18 18 17 17 17 17 17 17 16 16 16 16 16 16 16 16 16 16 16 16 16 16 16 16 16 16 16
22 23 23 22 23 23 22 21 21 21 21 20 20 20 20 19 19 19 19 19 19 18 18 18 17 17 17 17 16 16 16 16 16 16 16 16 16 16 16 16 16 16 16 16 16 16 16 16 16
24 23 23 23 24 23 22 21 21 21 21 21 21 21 20 20 20 19 19 19 19 18 18 18 17 17 17 17 16 16 16 16 16 16 16 16 16 16 16 16 15 15 15 15 15 16 15 15 16
24 23 23 23 24 23 22 22 22 22 21 21 21 22 21 20 20 19 19 19 19 18 18 18 17 17 17 16 16 16 16 16 15 15 15 15 15 16 15 15 15 15 15 15 15 15 15 15 15
23 23 23 23 23 23 22 21 22 22 22 22 22 22 21 21 20 19 19 19 18 18 18 18 17 17 17 16 16 16 16 16 15 15 15 15 15 15 15 15 15 15 15 15 15 15 15 15 15
22 24 23 23 22 21 22 20 21 22 21 22 22 22 21 21 20 19 19 18 18 18 18 18 17 17 17 16 16 16 16 16 15 15 15 15 15 15 15 15 15 15 15 15 15 15 15 15 15
23 24 24 23 22 22 22 21 22 22 22 22 22 22 22 21 20 20 19 19 18 18 18 18 17 17 17 16 16 16 16 16 16 15 15 15 15 15 15 15 15 15 15 15 15 15 15 15 15
24 24 23 23 22 21 22 22 21 22 22 23 23 22 22 21 21 20 19 19 18 18 17 17 17 17 17 16 16 16 16 16 15 15 15 15 15 15 15 15 15 15 15 15 15 15 15 15 15
23 22 21 21 21 21 24 23 23 23 24 23 23 22 22 21 21 20 19 18 18 18 17 17 17 17 17 16 16 16 16 16 15 15 15 15 15 15 15 15 15 15 15 14 14 14 14 14 14
23 22 21 20 21 22 24 23 24 24 24 24 23 22 22 21 21 20 19 18 18 18 17 17 17 17 17 16 16 16 16 16 16 15 15 15 15 15 15 15 15 14 14 14 14 14 14 14 14
23 23 23 22 23 22 23 23 23 24 24 23 23 22 22 21 20 20 19 18 18 18 17 17 17 17 16 16 16 16 16 16 16 15 15 15 15 15 15 15 14 14 14 14 14 14 14 14 14
24 24 23 22 21 21 22 23 22 22 23 23 23 22 22 21 20 20 19 18 18 18 17 17 17 17 16 16 16 16 16 16 16 15 15 15 15 15 15 15 14 14 14 14 14 14 14 14 14
24 24 23 23 23 21 21 22 25 24 24 23 23 22 22 21 21 20 19 19 18 18 17 17 17 17 16 16 16 16 16 15 15 15 15 15 15 15 14 14 14 14 14 14 14 14 14 14 13
25 24 24 22 22 22 22 22 25 24 24 24 23 22 22 21 21 20 19 19 18 17 17 17 17 17 17 16 16 16 16 15 15 15 15 15 15 15 14 14 14 14 14 14 14 13 13 13 13
Wind_Speed
9 9 6 2 3 2 1 4 7 8 7 10 11 11 12 12 9 8 3 8 11 11 12 13 13 13 13 14 15 14 15 14 14 13 12 12 11 11 10 10 10 10 10 10 9 9 9 10 9
9 5 3 3 3 1 3 6 9 10 8 7 11 13 13 11 10 7 4 8 11 12 13 13 14 14 14 15 14 14 14 14 13 12 12 11 11 11 10 10 10 10 10 10 8 8 9 9 9
10 6 3 2 2 2 5 8 9 9 7 7 9 11 8 7 8 5 6 9 12 13 14 14 14 14 15 15 14 14 14 13 13 12 11 11 10 10 10 10 10 10 10 9 8 8 8 9 8
5 3 3 1 3 7 7 7 7 8 7 8 10 9 8 8 6 7 9 11 13 14 15 14 14 14 14 14 14 14 13 12 12 11 10 10 10 10 10 9 9 9 9 9 9 8 8 8 8
3 3 3 1 4 6 7 7 6 8 7 10 12 11 9 9 10 10 9 11 13 13 14 14 14 15 14 13 13 13 13 12 11 10 9 9 10 10 9 9 9 9 9 8 8 8 8 8 7
3 3 2 2 6 8 7 7 8 10 11 12 12 11 7 7 9 9 9 10 11 12 14 14 15 15 14 14 13 13 11 10 9 9 9 8 8 8 9 8 9 9 8 8 8 7 7 7 6
3 3 2 3 6 7 7 7 7 8 10 9 9 9 8 8 6 8 9 9 9 10 11 13 14 14 14 14 13 11 10 9 8 8 7 7 7 7 8 8 8 8 8 7 7 6 5 4 4
3 2 1 3 6 7 7 8 7 9 9 8 8 8 8 9 7 8 9 8 8 7 8 9 13 14 13 13 12 10 9 8 7 6 6 6 6 7 7 8 8 7 6 5 4 3 2 1 1
3 1 1 3 5 6 7 8 7 8 9 9 11 13 13 12 9 8 8 7 6 6 6 6 8 10 12 12 11 10 9 8 7 6 6 6 6 8 7 8 6 5 4 3 2 1 1 2 3
1 1 3 4 5 6 8 7 5 7 9 12 13 14 14 11 9 9 8 8 7 5 6 5 5 6 7 8 9 8 7 7 5 5 6 3 4 7 8 7 5 3 2 2 3 4 5 6 5
2 3 5 7 7 7 7 5 5 8 7 10 13 14 12 10 8 7 7 7 7 6 4 4 5 6 6 5 5 4 5 4 3 5 6 5 6 5 6 5 4 4 4 2 3 4 3 1 2
5 5 5 6 6 5 5 5 7 8 7 9 12 13 10 9 8 7 6 7 7 7 4 4 4 5 6 5 4 3 3 4 5 5 6 6 3 2 3 2 1 1 1 1 2 1 2 4 5
6 6 7 7 6 6 7 7 8 10 10 10 10 11 10 9 8 7 7 7 8 8 5 4 4 5 5 4 2 5 5 4 6 5 5 7 3 2 2 3 3 4 4 2 2 3 4 5 6
6 7 6 6 6 5 7 7 6 8 10 9 9 9 9 8 8 7 8 8 8 8 6 4 5 4 5 4 3 4 5 5 6 5 4 7 6 4 3 2 3 3 3 3 3 4 3 4 4
7 7 5 4 5 5 6 5 6 9 10 9 8 8 8 7 7 7 7 7 8 8 7 5 5 5 6 6 5 5 5 6 5 5 6 8 7 6 4 3 2 3 5 6 6 5 4 4 4
6 4 4 5 5 5 4 4 7 8 9 8 7 7 7 6 6 6 7 6 7 8 8 5 5 6 6 5 4 4 6 6 5 7 7 8 8 9 6 3 2 4 6 5 3 4 4 4 4
5 4 5 6 6 5 4 4 6 7 8 8 8 8 7 6 7 7 7 6 6 8 8 7 6 6 6 5 4 5 6 5 7 8 8 9 9 9 7 3 4 6 5 3 4 4 3 4 3
4 4 4 5 6 5 5 5 7 8 8 8 9 10 10 9 8 8 8 7 6 7 8 8 6 6 5 3 4 4 4 4 6 6 8 10 9 9 7 4 6 7 4 5 5 4 3 2 2
2 3 3 3 5 5 5 5 7 8 8 8 9 10 12 10 9 9 8 7 7 6 8 7 7 5 4 3 3 3 3 3 3 5 8 9 10 9 7 4 5 5 5 5 5 4 4 3 3
2 3 3 4 5 4 5 5 7 9 10 9 9 10 11 11 10 9 8 7 7 7 7 7 6 6 5 3 3 3 3 3 4 4 7 9 9 9 7 5 4 4 4 5 5 4 3 3 3
3 3 3 4 3 3 4 4 7 8 8 8 8 8 10 12 13 11 9 7 7 7 6 6 7 6 5 4 3 3 3 2 3 4 3 5 7 8 8 7 5 4 4 4 5 5 5 4 4
3 3 4 4 4 3 5 3 6 9 9 9 9 9 10 10 12 11 10 9 7 7 6 6 6 6 6 5 3 4 3 2 3 3 2 3 6 6 7 7 6 4 4 4 4 4 4 4 3
3 3 3 5 5 5 7 4 5 10 11 10 10 10 10 10 12 12 11 10 8 7 6 6 6 6 5 5 4 3 3 3 3 3 3 3 4 5 6 5 5 4 4 4 4 5 5 4 3
3 3 5 6 5 6 8 6 4 8 11 11 10 10 10 11 11 11 11 10 8 7 6 6 6 5 5 5 5 5 4 4 4 3 3 3 3 3 4 4 5 5 4 4 4 4 5 4 4
6 4 2 4 5 5 6 5 4 7 8 9 10 11 10 11 11 11 11 10 8 8 7 6 6 5 4 5 5 6 5 4 4 3 3 3 3 2 2 3 4 4 4 5 4 4 4 4 4
7 5 3 2 2 2 4 2 4 8 7 8 9 10 10 11 11 11 12 10 9 9 8 7 7 5 4 4 4 5 5 3 3 3 3 3 3 3 3 4 5 5 5 5 4 4 4 4 4
6 6 6 5 6 3 3 4 6 8 8 8 9 10 11 12 12 11 11 11 10 10 8 7 7 6 5 4 4 4 4 4 4 3 3 3 3 3 3 4 4 4 5 5 4 4 4 4 5
7 6 4 3 3 3 3 4 6 9 9 8 9 9 10 11 12 12 11 11 10 9 8 7 7 7 6 6 5 5 5 4 4 4 4 4 4 3 3 4 4 4 4 4 4 3 3 4 3
8 8 5 4 4 2 1 1 4 8 8 9 9 9 10 10 12 12 11 10 10 10 8 7 7 7 6 6 6 6 5 4 3 4 4 4 4 3 3 4 4 3 3 3 3 3 3 4 4
8 7 5 4 4 3 2 0 4 6 7 8 8 9 9 10 10 11 11 11 10 10 9 8 7 7 6 6 6 6 6 5 4 4 5 4 4 3 3 4 4 3 3 3 3 3 3 3 4
Wind_Direction
279 253 242 250 252 229 69 64 70 69 61 58 60 68 68 54 61 91 119 102 103 103 100 93 92 91 90 90 88 85 85 83 81 79 79 77 75 74 70 66 63 63 60 61 63 60 60 60 58
283 272 256 235 254 215 81 77 74 71 80 78 69 71 72 67 75 93 99 100 104 103 98 93 93 91 90 89 87 86 85 83 81 79 80 78 77 74 70 66 64 63 60 60 63 63 60 58 56
266 259 256 245 306 53 86 77 85 83 75 77 76 60 58 71 74 92 114 110 103 99 98 97 97 95 94 93 91 88 88 87 84 81 81 78 76 75 73 68 65 63 61 61 62 64 60 57 53
261 248 243 235 62 61 92 98 101 98 78 75 87 76 67 62 82 111 115 109 105 102 101 100 99 99 97 94 93 91 91 90 88 85 85 82 79 77 73 70 64 62 62 62 62 62 60 56 51
240 256 245 175 95 85 82 86 86 91 84 80 87 92 83 75 92 107 107 104 106 107 110 109 104 102 99 98 96 94 92 91 92 91 90 87 83 78 71 68 64 62 61 63 63 60 56 53 47
259 252 251 147 103 96 87 81 77 88 93 94 98 99 90 93 97 105 105 104 109 114 116 116 112 106 101 99 99 96 95 94 95 96 96 94 91 86 80 72 66 63 62 63 64 64 58 51 42
277 286 262 127 110 99 95 84 81 90 86 84 97 101 109 105 106 111 106 105 106 114 123 128 125 116 109 106 105 105 104 102 103 106 109 110 107 102 95 83 75 70 68 67 67 70 66 53 34
290 292 276 107 111 101 94 87 81 83 82 83 87 107 122 129 127 113 106 105 106 112 121 128 130 132 126 120 120 124 123 124 129 133 139 142 137 124 109 95 87 78 75 75 75 79 79 60 349
278 274 72 80 103 105 107 96 80 79 86 79 80 99 119 129 127 118 111 111 109 110 114 114 119 124 129 131 136 149 148 153 159 162 167 175 173 144 117 101 106 100 95 101 120 176 192 229 254
215 31 63 65 99 104 99 96 101 99 95 94 95 104 121 131 132 127 129 123 118 115 109 118 120 120 116 113 140 156 143 153 171 153 155 176 107 99 107 121 130 142 152 197 231 241 246 237 231
91 91 76 71 85 98 101 97 87 105 101 114 124 129 133 134 129 126 127 125 122 110 97 113 118 115 121 109 108 105 110 133 101 73 100 91 90 107 118 137 165 193 185 219 241 243 250 198 119
100 92 88 90 87 96 95 94 87 87 98 111 122 130 131 132 131 133 125 121 113 104 92 89 101 108 103 99 105 96 72 72 63 38 69 77 67 69 79 92 82 82 99 77 327 347 32 41 60
108 105 97 95 97 97 94 88 89 95 107 112 122 133 137 140 136 133 134 128 122 114 100 78 82 99 100 89 73 84 63 47 69 33 53 80 68 67 61 63 32 28 28 38 19 40 45 36 41
112 107 105 112 109 111 108 107 110 116 120 128 138 138 141 144 145 149 143 133 122 118 116 99 78 68 89 92 74 69 77 66 58 26 51 75 66 68 49 56 48 34 20 23 40 54 42 53 53
127 127 124 137 137 129 110 112 129 132 134 139 142 144 144 148 151 149 134 133 130 125 111 90 90 79 75 69 56 64 65 67 55 31 36 69 67 63 56 38 38 30 25 36 43 41 39 58 57
166 164 155 155 150 152 144 138 137 144 147 147 151 151 147 149 149 134 131 132 127 121 113 100 89 86 83 75 58 58 63 57 55 41 30 53 65 67 48 29 24 39 33 36 44 40 34 44 46
192 189 163 157 173 171 164 145 150 163 163 162 164 159 154 155 151 142 137 130 124 123 125 121 100 89 87 90 78 55 67 55 55 46 31 38 50 60 56 30 22 44 36 26 39 50 37 46 39
193 179 162 169 167 165 156 158 168 179 181 178 176 168 165 168 161 146 137 133 131 129 126 117 111 105 107 89 80 66 56 59 59 53 44 38 39 49 51 49 39 43 36 24 36 41 38 43 18
225 158 151 152 154 165 163 173 181 183 189 194 191 178 167 161 152 143 143 147 145 134 124 122 124 117 104 94 96 87 74 70 62 55 48 45 41 34 51 45 43 44 43 33 37 37 29 24 42
228 159 153 145 163 178 177 188 190 191 198 198 198 180 164 156 150 149 154 155 147 133 129 130 121 110 96 82 94 102 91 87 85 60 48 47 45 31 45 50 55 53 47 32 35 39 26 14 33
207 183 178 171 166 202 199 211 196 185 191 193 202 180 166 164 158 158 160 149 139 140 136 136 130 123 117 111 88 91 76 69 90 92 67 53 59 43 34 41 51 53 58 42 39 36 35 20 5
221 185 196 200 199 215 212 220 206 186 189 195 194 180 170 167 156 157 156 151 151 146 142 142 133 131 134 132 125 125 123 114 103 107 113 91 72 61 42 41 48 54 59 57 42 43 35 35 12
209 206 225 227 232 247 229 223 201 181 187 190 187 180 169 165 159 159 160 158 160 152 149 142 137 139 135 129 122 124 121 121 108 103 103 93 75 69 57 41 46 53 55 57 56 52 43 42 30
188 211 236 235 244 246 231 221 191 185 188 187 183 177 171 166 161 159 157 154 155 145 143 140 140 132 140 154 148 138 128 118 109 97 102 99 88 72 67 55 56 58 54 56 53 54 51 46 39
208 211 223 216 216 227 206 210 179 167 176 179 177 176 172 164 161 157 153 152 152 147 148 147 144 147 164 164 149 135 135 132 125 123 106 100 93 76 71 64 61 58 52 59 54 51 50 46 43
220 225 247 263 238 226 202 203 131 140 145 159 166 166 163 161 157 155 155 155 156 155 158 159 155 157 160 156 141 136 138 132 116 114 115 106 98 90 70 72 69 62 56 62 56 57 44 48 46
225 232 245 267 279 257 200 145 125 136 144 157 163 163 164 162 159 158 157 158 159 159 163 165 159 157 163 160 133 124 129 121 129 134 111 105 104 103 87 86 84 69 61 58 56 61 47 48 41
234 255 270 266 287 274 219 182 159 158 163 166 167 166 165 165 162 160 161 162 161 157 162 166 163 162 166 157 145 130 124 122 128 123 117 113 111 104 102 92 93 78 67 72 61 60 43 56 54
215 227 245 263 264 279 294 34 125 152 161 167 169 165 167 167 164 163 162 160 158 157 165 168 164 163 161 153 143 140 135 127 134 125 120 116 114 117 114 105 102 91 77 77 73 68 54 50 47
231 234 232 246 267 259 264 170 111 136 149 158 164 163 167 165 162 160 159 158 160 162 168 170 169 163 156 152 146 143 135 135 147 130 126 124 126 130 120 113 110 107 93 79 73 69 56 60 54
Height
1498 1498 1500 1502 1502 1504 1503 1498 1493 1495 1496 1498 1499 1501 1506 1511 1516 1528 1528 1527 1527 1527 1528 1528 1529 1530 1531 1532 1532 1533 1534 1535 1535 1536 1537 1538 1538 1539 1539 1540 1540 1540 1541 1541 1541 1541 1542 1542 1542
1498 1500 1502 1502 1503 1507 1506 1498 1498 1498 1500 1500 1502 1505 1509 1516 1521 1525 1527 1528 1529 1529 1529 1530 1531 1532 1533 1533 1534 1535 1536 1536 1537 1538 1538 1539 1540 1540 1541 1541 1541 1541 1541 1542 1542 1542 1543 1543 1543
1499 1500 1502 1500 1501 1505 1506 1500 1499 1501 1501 1502 1505 1510 1515 1521 1524 1526 1528 1530 1530 1531 1531 1532 1533 1534 1535 1535 1536 1537 1537 1538 1539 1539 1540 1540 1541 1541 1541 1542 1542 1542 1542 1542 1543 1543 1543 1544 1544
1501 1502 1501 1501 1503 1500 1499 1500 1500 1502 1503 1505 1507 1515 1521 1525 1526 1528 1530 1531 1532 1532 1533 1534 1535 1536 1536 1537 1538 1538 1539 1540 1540 1540 1541 1542 1542 1542 1543 1543 1543 1543 1543 1543 1544 1544 1544 1544 1545
1502 1501 1501 1502 1501 1499 1498 1500 1501 1503 1505 1508 1511 1519 1524 1528 1529 1530 1532 1533 1533 1534 1535 1536 1537 1538 1538 1539 1539 1540 1540 1541 1541 1542 1542 1543 1543 1543 1543 1543 1544 1544 1544 1544 1544 1545 1545 1545 1545
1502 1500 1504 1506 1502 1499 1500 1502 1503 1505 1508 1511 1514 1520 1527 1530 1531 1532 1533 1535 1535 1536 1537 1538 1539 1540 1540 1541 1541 1542 1542 1542 1543 1543 1544 1544 1544 1544 1544 1545 1545 1545 1545 1545 1545 1546 1546 1546 1546
1503 1501 1503 1502 1504 1504 1503 1504 1506 1507 1510 1513 1516 1522 1529 1531 1532 1534 1535 1537 1537 1538 1539 1539 1541 1541 1542 1543 1543 1544 1544 1544 1544 1545 1545 1545 1546 1546 1546 1546 1546 1546 1546 1546 1546 1547 1547 1547 1548
1501 1502 1502 1502 1506 1507 1505 1506 1509 1510 1513 1516 1517 1522 1529 1532 1534 1535 1537 1538 1540 1541 1542 1542 1543 1543 1543 1544 1545 1546 1546 1546 1546 1547 1547 1547 1547 1548 1548 1548 1548 1547 1547 1547 1548 1548 1548 1548 1549
1501 1504 1507 1505 1506 1507 1506 1508 1511 1514 1516 1518 1520 1524 1529 1532 1535 1537 1538 1540 1541 1543 1544 1545 1546 1546 1547 1547 1547 1548 1548 1548 1548 1549 1549 1549 1549 1550 1550 1550 1549 1549 1549 1549 1549 1549 1549 1550 1550
1501 1507 1506 1502 1503 1506 1508 1510 1512 1516 1518 1522 1525 1528 1531 1534 1536 1538 1539 1541 1543 1544 1546 1547 1548 1548 1549 1550 1549 1550 1550 1550 1550 1551 1551 1551 1552 1552 1552 1551 1551 1551 1551 1551 1551 1551 1551 1551 1551
1501 1505 1504 1504 1505 1508 1510 1512 1514 1517 1521 1524 1527 1530 1532 1535 1537 1539 1541 1543 1544 1545 1547 1548 1549 1550 1550 1551 1552 1552 1553 1552 1553 1553 1553 1553 1553 1553 1553 1553 1552 1552 1552 1552 1553 1553 1552 1552 1552
1503 1505 1506 1507 1509 1510 1512 1514 1517 1519 1524 1526 1528 1531 1533 1535 1538 1540 1542 1544 1545 1547 1548 1550 1550 1551 1552 1552 1553 1554 1554 1554 1554 1554 1555 1555 1555 1555 1555 1555 1555 1555 1555 1555 1555 1554 1554 1554 1554
1504 1507 1509 1511 1512 1513 1514 1517 1520 1523 1526 1528 1530 1533 1535 1537 1539 1541 1543 1545 1547 1548 1549 1550 1551 1552 1553 1554 1554 1555 1555 1555 1555 1555 1556 1556 1556 1556 1556 1556 1556 1556 1556 1556 1556 1556 1555 1555 1555
1507 1509 1511 1512 1513 1515 1516 1519 1522 1526 1527 1530 1532 1534 1536 1538 1540 1542 1544 1546 1547 1549 1550 1552 1553 1553 1554 1555 1556 1556 1556 1557 1557 1557 1557 1558 1557 1557 1557 1557 1557 1557 1557 1557 1557 1557 1556 1556 1556
1508 1510 1513 1513 1513 1516 1518 1522 1524 1526 1528 1531 1533 1535 1537 1539 1540 1542 1545 1546 1548 1550 1551 1553 1554 1555 1555 1556 1557 1557 1558 1558 1558 1558 1559 1559 1559 1559 1559 1558 1558 1558 1558 1558 1558 1558 1557 1557 1557
1508 1511 1517 1514 1514 1516 1521 1528 1525 1527 1529 1531 1533 1535 1537 1539 1541 1543 1545 1547 1549 1550 1552 1553 1554 1555 1556 1557 1558 1558 1559 1559 1559 1559 1559 1560 1560 1560 1559 1559 1560 1559 1559 1559 1559 1558 1558 1558 1558
1510 1516 1517 1515 1513 1514 1519 1526 1525 1527 1528 1531 1533 1535 1537 1539 1542 1544 1546 1548 1549 1551 1552 1554 1555 1556 1557 1558 1559 1559 1560 1560 1560 1560 1560 1561 1561 1561 1560 1560 1560 1560 1560 1560 1560 1559 1559 1559 1559
1513 1512 1513 1515 1512 1513 1519 1523 1524 1526 1527 1529 1531 1534 1536 1539 1541 1543 1546 1548 1550 1552 1553 1554 1556 1557 1558 1559 1560 1560 1561 1561 1561 1562 1562 1562 1562 1562 1561 1561 1561 1561 1560 1560 1560 1560 1560 1560 1561
1504 1509 1513 1512 1510 1514 1519 1521 1522 1523 1525 1527 1529 1531 1534 1537 1540 1543 1545 1548 1550 1552 1553 1555 1556 1558 1559 1560 1560 1561 1562 1562 1562 1563 1562 1562 1562 1562 1563 1562 1562 1562 1561 1561 1561 1561 1561 1561 1561
1505 1510 1513 1511 1510 1514 1518 1520 1519 1521 1522 1524 1526 1528 1531 1535 1539 1542 1545 1547 1550 1552 1553 1555 1557 1558 1559 1560 1561 1562 1562 1563 1563 1563 1563 1563 1563 1563 1564 1563 1563 1563 1563 1562 1562 1562 1562 1563 1563
1507 1510 1512 1513 1512 1513 1517 1522 1519 1518 1520 1522 1524 1526 1530 1533 1537 1541 1544 1546 1549 1551 1553 1555 1556 1558 1559 1560 1561 1562 1563 1564 1564 1564 1564 1564 1564 1564 1564 1564 1564 1564 1564 1564 1564 1563 1563 1564 1564
1512 1506 1508 1511 1517 1521 1518 1532 1521 1516 1519 1520 1522 1524 1528 1531 1535 1539 1542 1545 1548 1551 1553 1555 1556 1558 1559 1560 1561 1562 1563 1564 1565 1565 1565 1565 1566 1565 1565 1565 1565 1565 1565 1565 1565 1565 1565 1565 1565
1508 1505 1507 1510 1514 1519 1516 1524 1520 1513 1517 1517 1518 1522 1525 1529 1533 1537 1540 1544 1547 1550 1552 1554 1556 1558 1559 1560 1561 1562 1563 1564 1565 1566 1566 1566 1566 1566 1566 1566 1566 1566 1566 1566 1566 1566 1566 1566 1566
1504 1507 1508 1509 1514 1527 1515 1518 1520 1511 1510 1512 1515 1519 1523 1527 1531 1535 1539 1542 1545 1548 1551 1553 1555 1557 1559 1560 1561 1562 1563 1564 1565 1566 1567 1567 1567 1567 1567 1567 1567 1567 1567 1567 1567 1567 1567 1568 1568
1506 1514 1526 1528 1528 1523 1504 1510 1511 1502 1502 1507 1511 1516 1520 1525 1529 1533 1537 1540 1544 1547 1550 1552 1554 1556 1558 1560 1561 1562 1563 1564 1565 1566 1567 1567 1567 1568 1568 1568 1568 1568 1568 1569 1568 1569 1569 1569 1569
1506 1511 1526 1533 1528 1516 1504 1508 1502 1497 1501 1505 1509 1514 1518 1523 1527 1531 1535 1538 1542 1545 1548 1551 1553 1555 1557 1559 1560 1561 1563 1564 1565 1566 1567 1567 1568 1568 1569 1569 1569 1569 1569 1570 1569 1570 1570 1570 1570
1506 1507 1504 1513 1511 1516 1509 1503 1501 1498 1501 1505 1508 1512 1516 1521 1525 1529 1533 1537 1540 1543 1546 1549 1551 1554 1556 1558 1559 1561 1562 1563 1564 1566 1567 1567 1568 1568 1569 1569 1569 1570 1570 1570 1570 1571 1571 1571 1571
1499 1500 1505 1512 1521 1525 1513 1507 1508 1503 1503 1504 1507 1511 1515 1519 1523 1527 1531 1535 1539 1542 1545 1548 1550 1552 1554 1557 1558 1560 1561 1562 1564 1565 1566 1567 1567 1568 1569 1569 1570 1570 1571 1571 1571 1571 1572 1572 1572
1499 1501 1502 1505 1508 1521 1525 1516 1492 1496 1498 1501 1505 1509 1513 1517 1521 1525 1529 1533 1537 1540 1543 1546 1549 1551 1553 1555 1557 1559 1560 1562 1563 1564 1565 1566 1567 1568 1569 1570 1570 1571 1571 1572 1572 1572 1572 1572 1573
1491 1494 1499 1512 1512 1507 1516 1515 1491 1494 1496 1499 1503 1507 1511 1515 1519 1523 1527 1531 1535 1538 1542 1545 1547 1549 1552 1554 1556 1558 1559 1561 1562 1564 1565 1566 1567 1568 1569 1569 1570 1571 1572 1572 1572 1572 1573 1573 1573